Weather History for KBBP - June, 2014

Change the Weather History Date:

Monday, June 23, 2014

  Actual Average (KFLO) Record (KFLO)
Temperature  
Mean Temperature 82 °F 80 °F  
Max Temperature 93 °F 90 °F 101 °F (1954)
Min Temperature 71 °F 70 °F 57 °F (1972)
Degree Days  
Heating Degree Days 0 0  
Month to date heating degree days 0  
Since 1 June heating degree days 0  
Since 1 July heating degree days 2523  
Cooling Degree Days 17 15  
Month to date cooling degree days 291  
Year to date cooling degree days 598  
Since 1 June cooling degree days 291  
Growing Degree Days 32 (Base 50)    
Moisture  
Dew Point 59 °F    
Average Humidity 52    
Maximum Humidity 100    
Minimum Humidity 20    
Precipitation  
Precipitation 0.00 in 0.15 in 0.88 in (1952)
Month to date precipitation 3.57  
Year to date precipitation 18.93  
Sea Level Pressure  
Sea Level Pressure 30.03 in    
Wind  
Wind Speed 6 mph (ENE)    
Max Wind Speed 12 mph    
Max Gust Speed 17 mph    
Visibility 10 miles    
Events      
T = Trace of Precipitation, MM = Missing Value Source: NWS Daily Summary

Daily Weather History Graph

Daily Weather History Graph

Search for Another Location

Airport or City:

Trip Planner

Search our weather history database for the weather conditions in past years. The results will help you decide how hot, cold, wet, or windy it might be!

Date:

Astronomy

Jun. 23, 2014 Rise Set
Actual Time 6:06 AM EDT 8:35 PM EDT
Civil Twilight 5:37 AM EDT 9:05 PM EDT
Nautical Twilight 5:00 AM EDT 9:41 PM EDT
Astronomical Twilight 4:20 AM EDT 10:21 PM EDT
Moon 3:24 AM EDT (6/23) 5:20 PM EDT (6/23)
Length of Visible Light 15h 27m
Length of Day
14h 28m
Waning Crescent, 13% of the Moon is Illuminated
Jun 23
Waning Crescent
Jun 27
New
Jul 5
First Quarter
Jul 12
Full
Jul 18
Last Quarter

Hourly Weather History & Observations

Time (EDT) Temp. Heat Index Dew Point Humidity Pressure Visibility Wind Dir Wind Speed Gust Speed Precip Events Conditions
12:15 AM 77.0 °F - 59.0 °F 54% 29.95 in 10.0 mi NE 5.8 mph - N/A   Clear
12:35 AM 77.0 °F - 60.8 °F 57% 29.95 in 10.0 mi NE 5.8 mph - N/A   Clear
12:55 AM 77.0 °F - 62.6 °F 61% 29.95 in 10.0 mi ENE 5.8 mph - N/A   Clear
1:15 AM 77.0 °F - 64.4 °F 65% 29.96 in 10.0 mi NE 5.8 mph - N/A   Scattered Clouds
1:35 AM 75.2 °F - 66.2 °F 73% 29.96 in 10.0 mi NE 4.6 mph - N/A   Scattered Clouds
1:55 AM 75.2 °F - 69.8 °F 83% 29.96 in 10.0 mi NE 5.8 mph - N/A   Clear
2:15 AM 75.2 °F - 69.8 °F 83% 29.96 in 10.0 mi NE 5.8 mph - N/A   Scattered Clouds
2:35 AM 75.2 °F - 69.8 °F 83% 29.97 in 10.0 mi NE 5.8 mph - N/A   Mostly Cloudy
2:55 AM 73.4 °F - 71.6 °F 94% 29.97 in 10.0 mi NE 6.9 mph - N/A   Scattered Clouds
3:15 AM 73.4 °F - 71.6 °F 94% 29.96 in 10.0 mi ENE 6.9 mph - N/A   Clear
3:35 AM 73.4 °F - 71.6 °F 94% 29.97 in 10.0 mi NE 5.8 mph - N/A   Clear
3:55 AM 73.4 °F - 73.4 °F 100% 29.97 in 10.0 mi NE 4.6 mph - N/A   Clear
4:15 AM 73.4 °F - 73.4 °F 100% 29.97 in 10.0 mi NE 5.8 mph - N/A   Clear
4:35 AM 73.4 °F - 73.4 °F 100% 29.98 in 10.0 mi NE 8.1 mph - N/A   Clear
5:15 AM 73.4 °F - 73.4 °F 100% 29.99 in 10.0 mi NE 5.8 mph - N/A   Scattered Clouds
5:35 AM 71.6 °F - 71.6 °F 100% 30.00 in 10.0 mi NE 4.6 mph - N/A   Scattered Clouds
5:55 AM 71.6 °F - 71.6 °F 100% 30.00 in 10.0 mi ENE 3.5 mph - N/A   Clear
6:15 AM 71.6 °F - 71.6 °F 100% 30.00 in 10.0 mi ENE 6.9 mph - N/A   Scattered Clouds
6:35 AM 71.6 °F - 71.6 °F 100% 30.01 in 10.0 mi ENE 8.1 mph - N/A   Scattered Clouds
6:55 AM 73.4 °F - 71.6 °F 94% 30.02 in 10.0 mi ENE 9.2 mph - N/A   Clear
7:15 AM 73.4 °F - 71.6 °F 94% 30.02 in 10.0 mi ENE 9.2 mph - N/A   Clear
7:35 AM 73.4 °F - 71.6 °F 94% 30.03 in 10.0 mi ENE 6.9 mph - N/A   Clear
7:55 AM 75.2 °F - 71.6 °F 89% 30.03 in 10.0 mi ENE 8.1 mph - N/A   Clear
8:15 AM 77.0 °F - 68.0 °F 74% 30.04 in 10.0 mi ENE 9.2 mph - N/A   Clear
8:35 AM 77.0 °F - 66.2 °F 69% 30.05 in 10.0 mi ENE 8.1 mph - N/A   Clear
8:55 AM 78.8 °F - 64.4 °F 61% 30.06 in 10.0 mi NNE 4.6 mph - N/A   Clear
9:15 AM 80.6 °F 81.8 °F 62.6 °F 54% 30.06 in 10.0 mi NE 5.8 mph - N/A   Clear
9:35 AM 80.6 °F 81.8 °F 62.6 °F 54% 30.06 in 10.0 mi ENE 8.1 mph - N/A   Clear
9:55 AM 82.4 °F 82.9 °F 60.8 °F 48% 30.07 in 10.0 mi NE 8.1 mph - N/A   Scattered Clouds
10:15 AM 82.4 °F 82.5 °F 59.0 °F 45% 30.07 in 10.0 mi East 5.8 mph - N/A   Clear
10:35 AM 86.0 °F 85.4 °F 59.0 °F 40% 30.07 in 10.0 mi ENE 5.8 mph - N/A   Scattered Clouds
10:55 AM 84.2 °F 83.5 °F 57.2 °F 40% 30.08 in 10.0 mi NE 4.6 mph - N/A   Scattered Clouds
11:15 AM 87.8 °F 86.1 °F 55.4 °F 33% 30.08 in 10.0 mi ENE 4.6 mph - N/A   Scattered Clouds
11:35 AM 87.8 °F 86.1 °F 55.4 °F 33% 30.08 in 10.0 mi ENE 8.1 mph - N/A   Scattered Clouds
11:55 AM 87.8 °F 85.7 °F 53.6 °F 31% 30.07 in 10.0 mi NE 8.1 mph - N/A   Scattered Clouds
12:15 PM 87.8 °F 85.7 °F 53.6 °F 31% 30.07 in 10.0 mi East 6.9 mph - N/A   Mostly Cloudy
12:35 PM 89.6 °F 87.3 °F 53.6 °F 29% 30.07 in 10.0 mi NE 8.1 mph - N/A   Scattered Clouds
12:55 PM 89.6 °F - 51.8 °F 27% 30.06 in 10.0 mi ENE 6.9 mph - N/A   Mostly Cloudy
1:15 PM 89.6 °F - 51.8 °F 27% 30.06 in 10.0 mi NE 5.8 mph - N/A   Scattered Clouds
1:35 PM 91.4 °F - 51.8 °F 26% 30.06 in 10.0 mi ESE 8.1 mph - N/A   Scattered Clouds
1:55 PM 89.6 °F - 50.0 °F 26% 30.05 in 10.0 mi ENE 11.5 mph - N/A   Scattered Clouds
2:15 PM 91.4 °F - 50.0 °F 24% 30.05 in 10.0 mi ENE 5.8 mph - N/A   Scattered Clouds
2:35 PM 91.4 °F - 50.0 °F 24% 30.05 in 10.0 mi East 4.6 mph - N/A   Scattered Clouds
2:55 PM 91.4 °F - 50.0 °F 24% 30.04 in 10.0 mi East 9.2 mph - N/A   Clear
3:15 PM 93.2 °F - 50.0 °F 23% 30.04 in 10.0 mi East 9.2 mph 17.3 mph N/A   Scattered Clouds
3:35 PM 93.2 °F - 46.4 °F 20% 30.04 in 10.0 mi East 4.6 mph - N/A   Scattered Clouds
3:55 PM 93.2 °F - 46.4 °F 20% 30.03 in 10.0 mi ESE 5.8 mph - N/A   Scattered Clouds
4:35 PM 91.4 °F - 46.4 °F 21% 30.03 in 10.0 mi East 6.9 mph - N/A   Scattered Clouds
4:55 PM 93.2 °F - 46.4 °F 20% 30.02 in 10.0 mi East 11.5 mph - N/A   Scattered Clouds
5:15 PM 93.2 °F - 46.4 °F 20% 30.02 in 10.0 mi ENE 4.6 mph - N/A   Clear
5:35 PM 91.4 °F - 46.4 °F 21% 30.01 in 10.0 mi East 8.1 mph - N/A   Scattered Clouds
5:55 PM 91.4 °F - 46.4 °F 21% 30.01 in 10.0 mi ENE 8.1 mph - N/A   Clear
6:35 PM 89.6 °F - 46.4 °F 22% 30.01 in 10.0 mi East 9.2 mph - N/A   Scattered Clouds
6:55 PM 89.6 °F - 46.4 °F 22% 30.02 in 10.0 mi East 8.1 mph - N/A   Scattered Clouds
7:15 PM 89.6 °F - 46.4 °F 22% 30.03 in 10.0 mi East 8.1 mph - N/A   Scattered Clouds
7:35 PM 87.8 °F - 46.4 °F 24% 30.03 in 10.0 mi East 6.9 mph - N/A   Scattered Clouds
7:55 PM 86.0 °F - 46.4 °F 25% 30.03 in 10.0 mi East 4.6 mph - N/A   Scattered Clouds
8:15 PM 86.0 °F - 46.4 °F 25% 30.03 in 10.0 mi East 4.6 mph - N/A   Scattered Clouds
8:35 PM 84.2 °F - 51.8 °F 33% 30.04 in 10.0 mi SSE 10.4 mph - N/A   Mostly Cloudy
8:55 PM 82.4 °F - 51.8 °F 35% 30.05 in 10.0 mi South 8.1 mph - N/A   Mostly Cloudy
9:15 PM 80.6 °F 80.3 °F 53.6 °F 39% 30.05 in 10.0 mi South 4.6 mph - N/A   Scattered Clouds
9:35 PM 80.6 °F 80.5 °F 55.4 °F 42% 30.06 in 10.0 mi Calm Calm - N/A   Mostly Cloudy
9:55 PM 80.6 °F 80.5 °F 55.4 °F 42% 30.08 in 10.0 mi ESE 3.5 mph - N/A   Overcast
10:15 PM 80.6 °F 80.5 °F 55.4 °F 42% 30.10 in 10.0 mi ESE 3.5 mph - N/A   Mostly Cloudy
10:35 PM 80.6 °F 80.5 °F 55.4 °F 42% 30.11 in 10.0 mi ESE 4.6 mph - N/A   Overcast
11:15 PM 77.0 °F - 55.4 °F 47% 30.12 in 10.0 mi East 6.9 mph - N/A   Overcast
11:35 PM 75.2 °F - 57.2 °F 53% 30.11 in 10.0 mi East 3.5 mph - N/A   Mostly Cloudy
11:55 PM 75.2 °F - 59.0 °F 57% 30.11 in 10.0 mi ESE 3.5 mph - N/A   Scattered Clouds